Weather History for Pocatello, ID

Change the Weather History Date:

Tuesday, October 11, 2011

  Actual Average Record
Temperature  
Mean Temperature 51 °F 49 °F  
Max Temperature 61 °F 63 °F 84 °F (1991)
Min Temperature 41 °F 34 °F 19 °F (2003)
Degree Days  
Heating Degree Days 14 16  
Month to date heating degree days 137 157  
Since 1 July heating degree days 256 406  
Cooling Degree Days 0 0  
Month to date cooling degree days 10 0  
Year to date cooling degree days 372 392  
Growing Degree Days 2 (Base 50)    
Moisture  
Dew Point 42 °F    
Average Humidity 67    
Maximum Humidity 86    
Minimum Humidity 47    
Precipitation  
Precipitation 0.12 in 0.03 in 0.43 in (1956)
Month to date precipitation 1.71 0.31  
Year to date precipitation 10.70 9.22  
Snow  
Snow 0.00 in - - ()
Month to date snowfall 0.0  
Since 1 July snowfall 0.0  
Since 1 September snowfall 0.0  
Snow Depth 0.00 in    
Sea Level Pressure  
Sea Level Pressure 29.92 in    
Wind  
Wind Speed 14 mph (SW)    
Max Wind Speed 32 mph    
Max Gust Speed 43 mph    
Visibility 10 miles    
Events Rain    
T = Trace of Precipitation, MM = Missing Value Source: NWS Daily Summary

Daily Weather History Graph

Daily Weather History Graph

Search for Another Location

Airport:

Trip Planner

Search our weather history database for the weather conditions in past years. The results will help you decide how hot, cold, wet, or windy it might be!

Date:

Astronomy

Oct. 11, 2011 Rise Set
Actual Time 7:38 AM MDT 6:54 PM MDT
Civil Twilight 7:10 AM MDT 7:22 PM MDT
Nautical Twilight 6:37 AM MDT 7:55 PM MDT
Astronomical Twilight 6:04 AM MDT 8:28 PM MDT
Moon 6:26 PM MDT (10/11) 7:21 AM MDT (10/11)
Length of Visible Light 12h 12m
Length of Day
11h 15m
Full, 100% of the Moon is Illuminated
Oct 11
Full
Oct 11
Full
Oct 19
Last Quarter
Oct 26
New
Nov 2
First Quarter

Hourly Weather History & Observations

Time (MDT) Temp. Windchill Dew Point Humidity Pressure Visibility Wind Dir Wind Speed Gust Speed Precip Events Conditions
12:53 AM 48.9 °F - 42.1 °F 77% 29.83 in 10.0 mi South 15.0 mph 21.9 mph N/A   Mostly Cloudy
1:53 AM 50.0 °F - 42.1 °F 74% 29.84 in 10.0 mi SSW 12.7 mph 20.7 mph N/A   Overcast
2:53 AM 46.9 °F - 44.1 °F 90% 29.85 in 8.0 mi SSW 11.5 mph - 0.01 in Rain Light Rain
3:53 AM 46.9 °F - 44.1 °F 90% 29.85 in 10.0 mi South 8.1 mph - 0.00 in   Overcast
4:53 AM 48.0 °F - 44.1 °F 86% 29.85 in 8.0 mi South 9.2 mph - 0.01 in Rain Light Rain
5:53 AM 48.0 °F - 45.0 °F 89% 29.85 in 10.0 mi SSW 3.5 mph - 0.01 in   Overcast
6:53 AM 48.9 °F - 44.1 °F 83% 29.88 in 9.0 mi SSW 19.6 mph 25.3 mph 0.01 in Rain Light Rain
7:53 AM 48.0 °F - 45.0 °F 89% 29.88 in 6.0 mi SSW 11.5 mph - 0.02 in Rain Rain
8:53 AM 48.9 °F - 45.0 °F 86% 29.89 in 10.0 mi SSW 9.2 mph - 0.02 in   Overcast
9:53 AM 52.0 °F - 46.0 °F 80% 29.89 in 10.0 mi SW 13.8 mph - N/A   Mostly Cloudy
10:53 AM 53.1 °F - 46.0 °F 77% 29.90 in 10.0 mi SW 19.6 mph 25.3 mph N/A   Mostly Cloudy
11:53 AM 57.0 °F - 45.0 °F 64% 29.90 in 10.0 mi WSW 15.0 mph - N/A   Mostly Cloudy
12:53 PM 57.9 °F - 45.0 °F 62% 29.88 in 10.0 mi WSW 20.7 mph 27.6 mph N/A   Mostly Cloudy
1:53 PM 59.0 °F - 45.0 °F 60% 29.87 in 10.0 mi WSW 17.3 mph 24.2 mph 0.00 in   Mostly Cloudy
2:53 PM 55.0 °F - 46.9 °F 74% 29.90 in 10.0 mi West 16.1 mph - 0.04 in   Scattered Clouds
3:53 PM 52.0 °F - 39.9 °F 63% 29.94 in 10.0 mi West 21.9 mph 35.7 mph 0.00 in Rain Light Rain
4:53 PM 55.9 °F - 39.0 °F 53% 29.93 in 10.0 mi West 21.9 mph 28.8 mph 0.00 in   Mostly Cloudy
5:53 PM 57.0 °F - 37.9 °F 49% 29.94 in 10.0 mi WSW 16.1 mph 25.3 mph N/A   Mostly Cloudy
6:53 PM 53.1 °F - 39.0 °F 59% 29.96 in 10.0 mi WSW 15.0 mph - N/A   Scattered Clouds
7:53 PM 50.0 °F - 36.0 °F 59% 30.02 in 10.0 mi SW 10.4 mph - N/A   Partly Cloudy
8:53 PM 51.1 °F - 35.1 °F 54% 30.03 in 10.0 mi WSW 16.1 mph - N/A   Clear
9:53 PM 48.0 °F - 35.1 °F 61% 30.06 in 10.0 mi WSW 8.1 mph - N/A   Clear
10:53 PM 46.0 °F 41.4 °F 35.1 °F 66% 30.09 in 10.0 mi West 9.2 mph - N/A   Clear
11:53 PM 41.0 °F 34.7 °F 35.1 °F 79% 30.11 in 10.0 mi South 10.4 mph - N/A   Clear